Location: Castillon
(43.0896°N, 0.2156°E)
Time: 18:29:15
(UTC+00:00)

Okean 2 - Pass Details

Date: 16 June 2021
Orbit: 560 x 575 km, 82.5° (Epoch: 02 August)

Event Time Altitude Azimuth Distance (km) Brightness Sun altitude
Rises 20:39:01 0° 191° (S) 2,746 6.6 -9.1°
Reaches altitude 10° 20:41:11 10° 193° (SSW) 1,853 5.7 -9.3°
Maximum altitude 20:45:15 74° 278° (W) 589 3.6 -9.9°
Drops below altitude 10° 20:49:21 10° 5° (N) 1,862 6.6 -10.4°
Sets 20:51:33 0° 7° (N) 2,761 7.5 -10.7°
